Canton, GA

5:04 AM EDT on September 24, 2017 (GMT -0400)
Canton

Weather History for KCNI - January, 2014

Change the Weather History Date:

Monday, January 13, 2014

  Actual Average (KMGE) Record (KMGE)
Temperature  
Mean Temperature 44 °F -  
Max Temperature 55 °F 49 °F 71 °F (2013)
Min Temperature 32 °F 31 °F 20 °F (2011)
Degree Days  
Heating Degree Days 22    
Moisture  
Dew Point 34 °F    
Average Humidity 76    
Maximum Humidity 93    
Minimum Humidity 36    
Precipitation  
Precipitation 0.00 in - - ()
Sea Level Pressure  
Sea Level Pressure 30.05 in    
Wind  
Wind Speed 3 mph (East)    
Max Wind Speed 10 mph    
Max Gust Speed 17 mph    
Visibility 8 miles    
Events Rain    
Averages and records for this station are not official NWS values.
T = Trace of Precipitation, MM = Missing Value Source: NWS Daily Summary

Daily Weather History Graph

Daily Weather History Graph

Search for Another Location

Airport or City:

Trip Planner

Search our weather history database for the weather conditions in past years. The results will help you decide how hot, cold, wet, or windy it might be!

Date:

Astronomy

Jan. 13, 2014 Rise Set
Actual Time 7:44 AM EST 5:49 PM EST
Civil Twilight 7:16 AM EST 6:16 PM EST
Nautical Twilight 6:45 AM EST 6:47 PM EST
Astronomical Twilight 6:15 AM EST 7:17 PM EST
Moon 4:02 PM EST (1/13) 5:32 AM EST (1/13)
Length of Visible Light 10h 59m
Length of Day
10h 05m
Waxing Gibbous, 95% of the Moon is Illuminated
Jan 13
Waxing Gibbous
Jan 15
Full
Jan 24
Last Quarter
Jan 30
New
Feb 6
First Quarter

Hourly Weather History & Observations

Time (EST) Temp. Windchill Dew Point Humidity Pressure Visibility Wind Dir Wind Speed Gust Speed Precip Events Conditions
12:15 AM 33.8 °F 30.8 °F 30.2 °F 87% 30.16 in 10.0 mi North 3.5 mph - N/A   Clear
12:35 AM 35.6 °F 32.8 °F 32.0 °F 87% 30.15 in 10.0 mi NE 3.5 mph - N/A   Clear
12:55 AM 35.6 °F - 30.2 °F 81% 30.15 in 10.0 mi Calm Calm - N/A   Clear
1:15 AM 33.8 °F 30.8 °F 30.2 °F 87% 30.15 in 10.0 mi North 3.5 mph - N/A   Clear
1:35 AM 33.8 °F 29.6 °F 30.2 °F 87% 30.15 in 10.0 mi NNE 4.6 mph - N/A   Clear
1:55 AM 35.6 °F 32.8 °F 32.0 °F 87% 30.15 in 10.0 mi North 3.5 mph - N/A   Clear
2:15 AM 33.8 °F 30.8 °F 32.0 °F 93% 30.16 in 10.0 mi NE 3.5 mph - N/A   Clear
2:35 AM 33.8 °F 30.8 °F 30.2 °F 87% 30.16 in 10.0 mi NE 3.5 mph - N/A   Clear
2:55 AM 32.0 °F 28.7 °F 28.4 °F 87% 30.16 in 10.0 mi NNE 3.5 mph - N/A   Clear
3:15 AM 33.8 °F - 32.0 °F 93% 30.16 in 10.0 mi Calm Calm - N/A   Clear
3:35 AM 32.0 °F - 30.2 °F 93% 30.16 in 10.0 mi Calm Calm - N/A   Clear
3:55 AM 32.0 °F - 28.4 °F 87% 30.16 in 10.0 mi Calm Calm - N/A   Clear
4:15 AM 32.0 °F - 28.4 °F 87% 30.16 in 10.0 mi Calm Calm - N/A   Clear
4:35 AM 33.8 °F - 32.0 °F 93% 30.16 in 10.0 mi Calm Calm - N/A   Clear
4:55 AM 32.0 °F - 30.2 °F 93% 30.16 in 10.0 mi Calm Calm - N/A   Clear
5:15 AM 32.0 °F - 28.4 °F 87% 30.15 in 10.0 mi Calm Calm - N/A   Clear
5:35 AM 32.0 °F 28.7 °F 30.2 °F 93% 30.13 in 10.0 mi ENE 3.5 mph - N/A   Clear
5:55 AM 32.0 °F 28.7 °F 30.2 °F 93% 30.11 in 10.0 mi ENE 3.5 mph - N/A   Clear
6:15 AM 32.0 °F - 28.4 °F 87% 30.11 in 10.0 mi Calm Calm - N/A   Clear
6:35 AM 32.0 °F 28.7 °F 30.2 °F 93% 30.08 in 10.0 mi ENE 3.5 mph - N/A   Clear
6:55 AM 32.0 °F - 28.4 °F 87% 30.09 in 10.0 mi Calm Calm - N/A   Clear
7:15 AM 32.0 °F - 30.2 °F 93% 30.10 in 10.0 mi Calm Calm - N/A   Clear
7:35 AM 33.8 °F - 32.0 °F 93% 30.12 in 10.0 mi Calm Calm - N/A   Clear
7:55 AM 33.8 °F - 32.0 °F 93% 30.13 in 10.0 mi Calm Calm - N/A   Clear
8:15 AM 35.6 °F - 32.0 °F 87% 30.14 in 10.0 mi Calm Calm - N/A   Clear
8:35 AM 35.6 °F - 32.0 °F 87% 30.14 in 10.0 mi Calm Calm - N/A   Clear
8:55 AM 33.8 °F - 30.2 °F 87% 30.13 in 10.0 mi Calm Calm - N/A   Clear
9:15 AM 33.8 °F - 30.2 °F 87% 30.14 in 10.0 mi Calm Calm - N/A   Clear
9:35 AM 37.4 °F - 32.0 °F 81% 30.14 in 10.0 mi Calm Calm - N/A   Scattered Clouds
9:55 AM 41.0 °F - 32.0 °F 70% 30.13 in 10.0 mi Calm Calm - N/A   Scattered Clouds
10:15 AM 39.2 °F - 32.0 °F 75% 30.13 in 10.0 mi Calm Calm - N/A   Scattered Clouds
10:35 AM 42.8 °F - 32.0 °F 66% 30.13 in 10.0 mi Calm Calm - N/A   Scattered Clouds
10:55 AM 44.6 °F 43.1 °F 32.0 °F 61% 30.11 in 10.0 mi ENE 3.5 mph - N/A   Mostly Cloudy
11:15 AM 46.4 °F 45.2 °F 32.0 °F 57% 30.11 in 10.0 mi East 3.5 mph - N/A   Mostly Cloudy
11:35 AM 48.2 °F - 32.0 °F 54% 30.08 in 10.0 mi East 3.5 mph - N/A   Scattered Clouds
11:55 AM 48.2 °F - 32.0 °F 54% 30.08 in 10.0 mi Calm Calm - N/A   Mostly Cloudy
12:15 PM 50.0 °F - 32.0 °F 50% 30.07 in 10.0 mi Calm Calm - N/A   Mostly Cloudy
12:35 PM 50.0 °F - 32.0 °F 50% 30.04 in 10.0 mi Calm Calm - N/A   Mostly Cloudy
12:55 PM 51.8 °F - 32.0 °F 47% 30.04 in 10.0 mi Calm Calm - N/A   Scattered Clouds
1:15 PM 53.6 °F - 32.0 °F 44% 30.02 in 10.0 mi Calm Calm - N/A   Scattered Clouds
1:35 PM 53.6 °F - 30.2 °F 41% 30.01 in 10.0 mi South 8.1 mph - N/A   Clear
1:55 PM 53.6 °F - 28.4 °F 38% 30.00 in 10.0 mi South 4.6 mph - N/A   Clear
2:15 PM 53.6 °F - 28.4 °F 38% 30.00 in 10.0 mi SSW 10.4 mph 17.3 mph N/A   Scattered Clouds
2:35 PM 53.6 °F - 30.2 °F 41% 30.00 in 10.0 mi SSW 6.9 mph - N/A   Clear
2:55 PM 55.4 °F - 28.4 °F 36% 29.99 in 10.0 mi South 4.6 mph - N/A   Clear
3:15 PM 53.6 °F - 28.4 °F 38% 29.98 in 10.0 mi South 4.6 mph - N/A   Clear
3:35 PM 53.6 °F - 28.4 °F 38% 29.97 in 10.0 mi SSE 4.6 mph - N/A   Scattered Clouds
3:55 PM 53.6 °F - 28.4 °F 38% 29.98 in 10.0 mi SE 5.8 mph - N/A   Mostly Cloudy
4:15 PM 51.8 °F - 32.0 °F 47% 29.93 in 10.0 mi East 4.6 mph - N/A Rain Light Rain
4:35 PM 51.8 °F - 33.8 °F 50% 29.93 in 10.0 mi ESE 3.5 mph - N/A Rain Light Rain
4:55 PM 48.2 °F - 39.2 °F 71% 29.96 in 7.0 mi Calm Calm - N/A Rain Rain
5:15 PM 50.0 °F - 37.4 °F 62% 29.96 in 10.0 mi Calm Calm - N/A Rain Light Rain
5:35 PM 48.2 °F - 39.2 °F 71% 29.96 in 7.0 mi Calm Calm - N/A Rain Light Rain
5:55 PM 46.4 °F - 41.0 °F 81% 29.95 in 7.0 mi Calm Calm - N/A Rain Light Rain
6:15 PM 46.4 °F 44.3 °F 42.8 °F 87% 29.96 in 7.0 mi East 4.6 mph - N/A Rain Light Rain
6:35 PM 46.4 °F 43.5 °F 42.8 °F 87% 29.96 in 7.0 mi East 5.8 mph - N/A   Drizzle
6:55 PM 46.4 °F 43.5 °F 42.8 °F 87% 29.94 in 7.0 mi East 5.8 mph - N/A Rain Rain
7:15 PM 46.4 °F 42.9 °F 42.8 °F 87% 29.96 in 5.0 mi ESE 6.9 mph - N/A Rain Rain
7:35 PM 46.4 °F 43.5 °F 42.8 °F 87% 29.97 in 5.0 mi East 5.8 mph - N/A Rain Rain
7:55 PM 46.4 °F 42.9 °F 42.8 °F 87% 29.96 in 4.0 mi East 6.9 mph - N/A Rain Rain
8:15 PM 46.4 °F 43.5 °F 42.8 °F 87% 29.96 in 4.0 mi ENE 5.8 mph - N/A Rain Rain
8:35 PM 46.4 °F 43.5 °F 42.8 °F 87% 29.95 in 4.0 mi ENE 5.8 mph - N/A   Drizzle
8:55 PM 46.4 °F 42.9 °F 42.8 °F 87% 29.94 in 5.0 mi ENE 6.9 mph - N/A   Light Drizzle
9:15 PM 46.4 °F 42.4 °F 42.8 °F 87% 29.94 in 2.5 mi ENE 8.1 mph - N/A Rain Rain
9:35 PM 46.4 °F - 42.8 °F 87% 29.94 in 4.0 mi Calm Calm - N/A Rain Rain
9:55 PM 44.6 °F 42.2 °F 42.8 °F 93% 29.94 in 3.0 mi East 4.6 mph - N/A Rain Light Rain
10:15 PM 44.6 °F 41.4 °F 42.8 °F 93% 29.94 in 4.0 mi ENE 5.8 mph - N/A Rain Rain
10:35 PM 44.6 °F 42.2 °F 42.8 °F 93% 29.93 in 2.5 mi East 4.6 mph - N/A   Drizzle
10:55 PM 44.6 °F 41.4 °F 42.8 °F 93% 29.92 in 2.5 mi ENE 5.8 mph - N/A   Drizzle
11:15 PM 44.6 °F 42.2 °F 42.8 °F 93% 29.92 in 3.0 mi ENE 4.6 mph - N/A Rain Light Rain
11:35 PM 44.6 °F 42.2 °F 42.8 °F 93% 29.91 in 1.8 mi ENE 4.6 mph - N/A Rain Light Rain
11:55 PM 44.6 °F 43.1 °F 42.8 °F 93% 29.90 in 1.8 mi East 3.5 mph - N/A Rain Rain